Change the Weather History Date:

Monday, November 14, 2011

  Actual Average Record
Temperature  
Mean Temperature 51 °F 40 °F  
Max Temperature 61 °F 50 °F 74 °F (1964)
Min Temperature 40 °F 31 °F 9 °F (2014)
Degree Days  
Heating Degree Days 14 25  
Month to date heating degree days 265 299  
Since 1 July heating degree days 741 783  
Cooling Degree Days 0 0  
Month to date cooling degree days 0 0  
Year to date cooling degree days 1144 946  
Growing Degree Days 1 (Base 50)    
Moisture  
Dew Point 32 °F    
Average Humidity 56    
Maximum Humidity 79    
Minimum Humidity 32    
Precipitation  
Precipitation 0.00 in 0.08 in 0.50 in (1968)
Month to date precipitation 3.37 1.32  
Year to date precipitation 32.49  
Sea Level Pressure  
Sea Level Pressure 29.64 in    
Wind  
Wind Speed 9 mph (SW)    
Max Wind Speed 23 mph    
Max Gust Speed 28 mph    
Visibility 10 miles    
Events      
T = Trace of Precipitation, MM = Missing Value Source: NWS Daily Summary

Daily Weather History Graph

Daily Weather History Graph

Search for Another Location

Airport or City:

Trip Planner

Search our weather history database for the weather conditions in past years. The results will help you decide how hot, cold, wet, or windy it might be!

Date:

Astronomy

Nov. 14, 2011 Rise Set
Actual Time 7:00 AM CST 4:58 PM CST
Civil Twilight 6:31 AM CST 5:28 PM CST
Nautical Twilight 5:58 AM CST 6:01 PM CST
Astronomical Twilight 5:26 AM CST 6:33 PM CST
Moon 8:06 PM CST (11/14) 10:20 AM CST (11/14)
Length of Visible Light 10h 56m
Length of Day
9h 58m
Waning Gibbous, 86% of the Moon is Illuminated
Nov 14
Waning Gibbous
Nov 18
Last Quarter
Nov 25
New
Dec 2
First Quarter
Dec 10
Full

Hourly Weather History & Observations

Time (CST) Temp. Windchill Dew Point Humidity Pressure Visibility Wind Dir Wind Speed Gust Speed Precip Events Conditions
12:53 AM 41.0 °F 38.0 °F 30.9 °F 67% 29.61 in 10.0 mi SE 4.6 mph - N/A   Clear
1:53 AM 43.0 °F 39.5 °F 30.9 °F 62% 29.59 in 10.0 mi SE 5.8 mph - N/A   Clear
2:53 AM 42.1 °F 37.7 °F 30.9 °F 65% 29.57 in 10.0 mi ESE 6.9 mph - N/A   Clear
3:53 AM 44.1 °F 40.1 °F 30.9 °F 60% 29.55 in 10.0 mi ESE 6.9 mph - N/A   Clear
4:53 AM 43.0 °F 40.3 °F 30.9 °F 62% 29.56 in 10.0 mi SSE 4.6 mph - N/A   Partly Cloudy
6:53 AM 41.0 °F 37.1 °F 34.0 °F 76% 29.60 in 10.0 mi WNW 5.8 mph - N/A   Overcast
7:53 AM 41.0 °F 38.0 °F 35.1 °F 79% 29.60 in 10.0 mi SW 4.6 mph - N/A   Mostly Cloudy
8:53 AM 45.0 °F 40.1 °F 35.1 °F 68% 29.64 in 10.0 mi West 9.2 mph - N/A   Partly Cloudy
9:53 AM 52.0 °F - 35.1 °F 53% 29.62 in 10.0 mi SSW 8.1 mph - N/A   Clear
10:53 AM 57.9 °F - 34.0 °F 41% 29.62 in 10.0 mi SW 11.5 mph - N/A   Clear
11:53 AM 59.0 °F - 32.0 °F 36% 29.63 in 10.0 mi WSW 15.0 mph - N/A   Clear
12:53 PM 60.1 °F - 30.9 °F 33% 29.62 in 10.0 mi West 19.6 mph 24.2 mph N/A   Clear
1:53 PM 61.0 °F - 30.9 °F 32% 29.62 in 10.0 mi West 17.3 mph - N/A   Clear
2:53 PM 57.0 °F - 30.9 °F 37% 29.65 in 10.0 mi West 16.1 mph - N/A   Clear
3:53 PM 55.0 °F - 32.0 °F 42% 29.67 in 10.0 mi West 10.4 mph - N/A   Clear
4:53 PM 50.0 °F - 32.0 °F 50% 29.68 in 10.0 mi WSW 6.9 mph - N/A   Clear
5:53 PM 45.0 °F 40.6 °F 30.9 °F 58% 29.71 in 10.0 mi SW 8.1 mph - N/A   Clear
7:53 PM 46.9 °F - 30.9 °F 54% 29.75 in 10.0 mi SW 8.1 mph - N/A   Clear
9:53 PM 46.9 °F - 30.0 °F 52% 29.72 in 10.0 mi South 6.9 mph - N/A   Clear
10:53 PM 41.0 °F 35.2 °F 30.0 °F 65% 29.73 in 10.0 mi SSW 9.2 mph - N/A   Clear
11:53 PM 41.0 °F 35.2 °F 30.0 °F 65% 29.73 in 10.0 mi South 9.2 mph - N/A   Clear